This is the latest recevied weather packets stored in our database for station/object KW4UJ. If no packets are shown the sender has not sent any weather packets the latest 10 day(s).
| Time | Temp. | Humidity | Pressure | Rain* | Wind** | Luminosity | Snow |
|---|---|---|---|---|---|---|---|
| 1787955200 | 28.89° C | 61% | 1016.6 hPa | 0 mm | - | 134 W/m² | - |
| 1787954896 | 28.89° C | 61% | 1016.7 hPa | 0 mm | - | 149 W/m² | - |
| 1787954592 | 28.89° C | 62% | 1016.7 hPa | 0 mm | - | 162 W/m² | - |
| 1787954291 | 28.89° C | 63% | 1016.7 hPa | 0 mm | - | 86 W/m² | - |
| 1787953986 | 28.89° C | 64% | 1016.6 hPa | 0 mm | - | 200 W/m² | - |
| 1787953685 | 28.89° C | 63% | 1016.6 hPa | 0 mm | - | 215 W/m² | - |
| 1787953380 | 28.89° C | 64% | 1016.6 hPa | 0 mm | - | 96 W/m² | - |
| 1787953078 | 29.44° C | 63% | 1016.6 hPa | 0 mm | - | 182 W/m² | - |
| 1787952778 | 30° C | 61% | 1016.4 hPa | 0 mm | - | 75 W/m² | - |
| 1787952472 | 30.56° C | 60% | 1016.3 hPa | 0 mm | - | 225 W/m² | - |
| 1787952169 | 30° C | 62% | 1016.3 hPa | 0 mm | - | 306 W/m² | - |
| 1787951867 | 30° C | 61% | 1016.4 hPa | 0 mm | - | 132 W/m² | - |
| 1787951563 | 30° C | 58% | 1016 hPa | 0 mm | - | 274 W/m² | - |
| 1787951259 | 30° C | 58% | 1016.4 hPa | 0 mm | - | 232 W/m² | - |
| 1787950955 | 30° C | 58% | 1016.1 hPa | 0 mm | - | 197 W/m² | - |
| 1787950650 | 30° C | 58% | 1016.2 hPa | 0 mm | - | 132 W/m² | - |
| 1787950347 | 30° C | 59% | 1016.1 hPa | 0 mm | - | 327 W/m² | - |
| 1787950042 | 30° C | 62% | 1015.9 hPa | 0 mm | - | 333 W/m² | - |
| 1787949738 | 30° C | 61% | 1016.1 hPa | 0 mm | - | 149 W/m² | - |
| 1787949437 | 29.44° C | 62% | 1016.1 hPa | 0 mm | - | 361 W/m² | - |
| 1787949132 | 30° C | 62% | 1015.8 hPa | 0 mm | - | 128 W/m² | - |
| 1787948829 | 30.56° C | 60% | 1015.9 hPa | 0 mm | - | 109 W/m² | - |
| 1787948528 | 30.56° C | 59% | 1015.9 hPa | 0 mm | - | 407 W/m² | - |
| 1787948223 | 31.11° C | 57% | 1015.8 hPa | 0 mm | - | 155 W/m² | - |
| 1787947921 | 31.11° C | 57% | 1016.1 hPa | 0 mm | - | 447 W/m² | - |
* Rain latest hour (hover to see other rain measurements)
** Current wind speed in m/s (hover to see current wind gust speed)